Date String (YYYY-MM-DD hh:mm:ss) UTC,Instrument flags,Ambient pressure (hPa),Sample flow (lpm),Bypass flow (lpm),Sample temperature (°C),Ambient temperature (°C),ASC tube jacket temperature (°C),LED temperature (°C),Box temperature (°C),Sample RH (%),Span deviation,Mass concentration (μg/m³),Mass concentration (μg/m³),Mass concentration (μg/m³)
DateTimeUTC,F1_M11,P_M11,Q1_M11,Q2_M11,T1_M11,T2_M11,T3_M11,T4_M11,T5_M11,U1_M11,ZSPAN_M11,X0_M11,X2_M11,X1_M11
2022-07-03 07:00:00,,0826.2,5.00,0.00,29.8,28.0,00.0,38.5,31.7,22.1,0000.0,0008.08,0003.44,0002.73
2022-07-03 07:01:00,,0826.2,5.00,0.00,29.8,27.6,00.0,38.4,31.6,22.0,0000.0,0008.34,0003.45,0002.75
2022-07-03 07:02:00,,0826.2,5.00,0.00,29.7,27.5,00.0,38.4,31.5,22.0,0000.0,0008.39,0003.47,0002.75
2022-07-03 07:03:00,,0826.2,5.01,0.00,29.7,27.6,00.0,38.4,31.4,22.0,0000.0,0008.64,0003.49,0002.78
2022-07-03 07:04:00,,0826.1,5.00,0.00,29.6,27.7,00.0,38.4,31.4,22.0,0000.0,0008.59,0003.48,0002.78
2022-07-03 07:05:00,,0826.1,4.99,0.00,29.6,27.8,00.0,38.4,31.4,22.0,0000.0,0008.50,0003.46,0002.78
2022-07-03 07:06:00,,0826.1,5.00,0.00,29.6,28.0,00.0,38.4,31.5,22.0,0000.0,0007.92,0003.47,0002.79
2022-07-03 07:07:00,,0826.1,5.00,0.00,29.6,28.1,00.0,38.4,31.5,21.9,0000.0,0007.84,0003.49,0002.81
2022-07-03 07:08:00,,0826.1,4.99,0.00,29.6,28.2,00.0,38.4,31.5,21.8,0000.0,0007.79,0003.50,0002.81
2022-07-03 07:09:00,,0826.1,4.99,0.00,29.7,28.3,00.0,38.4,31.6,21.8,0000.0,0007.83,0003.57,0002.84
2022-07-03 07:10:00,,0826.1,5.00,0.00,29.7,28.4,00.0,38.4,31.6,21.7,0000.0,0007.57,0003.57,0002.85
2022-07-03 07:11:00,,0826.2,5.01,0.00,29.7,28.5,00.0,38.4,31.6,21.5,0000.0,0007.96,0003.59,0002.83
2022-07-03 07:12:00,,0826.2,5.00,0.00,29.7,28.6,00.0,38.5,31.7,21.6,0000.0,0007.57,0003.58,0002.82
2022-07-03 07:13:00,,0826.2,5.01,0.00,29.8,28.7,00.0,38.5,31.7,22.2,0000.0,0007.55,0003.58,0002.82
2022-07-03 07:14:00,,0826.2,4.99,0.00,29.8,28.7,00.0,38.5,31.8,22.6,0000.0,0007.33,0003.60,0002.83
2022-07-03 07:15:00,,0826.2,5.00,0.00,29.8,28.8,00.0,38.5,31.7,22.4,0000.0,0007.29,0003.60,0002.83
2022-07-03 07:16:00,,0826.2,5.00,0.00,29.8,28.9,00.0,38.5,31.8,21.9,0000.0,0007.37,0003.61,0002.84
2022-07-03 07:17:00,,0826.2,5.00,0.00,29.9,28.5,00.0,38.5,31.8,21.8,0000.0,0007.70,0003.61,0002.83
2022-07-03 07:18:00,,0826.2,5.01,0.00,29.8,27.8,00.0,38.5,31.6,21.9,0000.0,0007.84,0003.60,0002.80
2022-07-03 07:19:00,,0826.2,5.01,0.00,29.8,27.5,00.0,38.4,31.5,21.9,0000.0,0008.29,0003.58,0002.78
2022-07-03 07:20:00,,0826.2,5.00,0.00,29.7,27.5,00.0,38.4,31.4,21.9,0000.0,0008.82,0003.50,0002.75
2022-07-03 07:21:00,,0826.2,5.01,0.00,29.6,27.6,00.0,38.4,31.4,22.0,0000.0,0009.92,0003.48,0002.74
2022-07-03 07:22:00,,0826.2,5.01,0.00,29.6,27.7,00.0,38.4,31.4,22.2,0000.0,0010.48,0003.49,0002.74
2022-07-03 07:23:00,,0826.2,5.00,0.00,29.6,27.9,00.0,38.4,31.4,22.4,0000.0,0010.97,0003.50,0002.74
2022-07-03 07:24:00,,0826.2,5.00,0.00,29.6,28.0,00.0,38.4,31.5,22.4,0000.0,0011.28,0003.52,0002.76
2022-07-03 07:25:00,,0826.1,5.00,0.00,29.6,28.1,00.0,38.4,31.5,22.4,0000.0,0011.42,0003.53,0002.75
2022-07-03 07:26:00,,0826.2,5.00,0.00,29.6,28.3,00.0,38.4,31.5,22.2,0000.0,0011.40,0003.52,0002.75
2022-07-03 07:27:00,,0826.1,5.00,0.00,29.7,28.4,00.0,38.4,31.6,22.2,0000.0,0011.44,0003.53,0002.75
2022-07-03 07:28:00,,0826.1,5.00,0.00,29.7,28.5,00.0,38.4,31.6,22.3,0000.0,0011.46,0003.50,0002.76
2022-07-03 07:29:00,,0826.2,5.00,0.00,29.7,28.5,00.0,38.4,31.7,22.3,0000.0,0011.72,0003.51,0002.78
2022-07-03 07:30:00,,0826.1,5.00,0.00,29.7,28.6,00.0,38.5,31.7,22.2,0000.0,0011.57,0003.51,0002.81
2022-07-03 07:31:00,,0826.2,5.00,0.00,29.8,28.7,00.0,38.5,31.7,22.1,0000.0,0010.90,0003.54,0002.84
2022-07-03 07:32:00,,0826.2,5.00,0.00,29.8,28.8,00.0,38.5,31.7,22.1,0000.0,0009.87,0003.54,0002.87
2022-07-03 07:33:00,,0826.2,5.00,0.00,29.8,28.8,00.0,38.5,31.8,22.2,0000.0,0009.00,0003.55,0002.89
2022-07-03 07:34:00,,0826.3,5.00,0.00,29.8,28.9,00.0,38.5,31.8,22.3,0000.0,0009.09,0003.57,0002.90
2022-07-03 07:35:00,,0826.4,4.99,0.00,29.9,28.9,00.0,38.5,31.8,22.3,0000.0,0008.76,0003.57,0002.92
2022-07-03 07:36:00,,0826.4,5.00,0.00,29.9,29.0,00.0,38.6,31.9,22.3,0000.0,0008.53,0003.51,0002.93
2022-07-03 07:37:00,,0826.3,5.00,0.00,29.9,28.8,00.0,38.6,31.9,22.4,0000.0,0008.53,0003.51,0002.96
2022-07-03 07:38:00,,0826.3,5.00,0.00,29.9,28.0,00.0,38.5,31.7,22.5,0000.0,0008.43,0003.49,0002.97
2022-07-03 07:39:00,,0826.3,5.00,0.00,29.8,27.6,00.0,38.5,31.6,22.7,0000.0,0008.09,0003.52,0003.01
2022-07-03 07:40:00,,0826.2,4.99,0.00,29.8,27.6,00.0,38.5,31.5,22.9,0000.0,0007.92,0003.51,0003.02
2022-07-03 07:41:00,,0826.3,4.99,0.00,29.7,27.6,00.0,38.5,31.5,23.0,0000.0,0007.73,0003.57,0003.04
2022-07-03 07:42:00,,0826.2,5.00,0.00,29.7,27.8,00.0,38.5,31.5,23.1,0000.0,0008.28,0003.62,0003.07
2022-07-03 07:43:00,,0826.3,5.00,0.00,29.7,27.9,00.0,38.5,31.5,23.0,0000.0,0008.49,0003.67,0003.09
2022-07-03 07:44:00,,0826.2,5.00,0.00,29.7,28.0,00.0,38.5,31.5,23.1,0000.0,0008.55,0003.73,0003.12
2022-07-03 07:45:00,,0826.2,5.00,0.00,29.7,28.2,00.0,38.5,31.5,23.1,0000.0,0007.96,0003.73,0003.13
2022-07-03 07:46:00,,0826.2,5.00,0.00,29.7,28.3,00.0,38.5,31.6,23.2,0000.0,0008.64,0003.77,0003.14
2022-07-03 07:47:00,,0826.2,5.00,0.00,29.7,28.4,00.0,38.5,31.6,23.1,0000.0,0009.01,0003.82,0003.15
2022-07-03 07:48:00,,0826.2,5.00,0.00,29.7,28.5,00.0,38.5,31.6,23.0,0000.0,0009.07,0003.85,0003.16
2022-07-03 07:49:00,,0826.2,5.01,0.00,29.7,28.6,00.0,38.5,31.7,22.7,0000.0,0009.05,0003.84,0003.16
2022-07-03 07:50:00,,0826.4,5.00,0.00,29.8,28.6,00.0,38.5,31.7,22.7,0000.0,0009.23,0003.85,0003.17
2022-07-03 07:51:00,,0826.3,4.99,0.00,29.8,28.7,00.0,38.5,31.7,22.6,0000.0,0009.18,0003.88,0003.18
2022-07-03 07:52:00,,0826.2,4.99,0.00,29.8,28.8,00.0,38.5,31.7,22.7,0000.0,0009.05,0003.84,0003.18
2022-07-03 07:53:00,,0826.4,4.99,0.00,29.8,28.8,00.0,38.6,31.8,22.7,0000.0,0008.59,0003.83,0003.17
2022-07-03 07:54:00,,0826.2,4.99,0.00,29.9,28.9,00.0,38.6,31.9,22.7,0000.0,0008.46,0003.82,0003.17
2022-07-03 07:55:00,,0826.2,4.99,0.00,29.9,28.9,00.0,38.6,31.9,22.8,0000.0,0008.40,0003.79,0003.16
2022-07-03 07:56:00,,0826.2,5.00,0.00,29.9,28.9,00.0,38.6,31.9,22.7,0000.0,0008.40,0003.79,0003.17
2022-07-03 07:57:00,,0826.2,5.00,0.00,29.9,28.0,00.0,38.6,31.7,22.7,0000.0,0007.82,0003.76,0003.17
2022-07-03 07:58:00,,0826.2,5.00,0.00,29.8,27.2,00.0,38.5,31.6,22.8,0000.0,0007.37,0003.74,0003.17
2022-07-03 07:59:00,,0826.2,5.00,0.00,29.8,27.0,00.0,38.5,31.4,23.0,0000.0,0007.72,0003.73,0003.17
